Wetterdaten: Sonntag, 05.07.2015
Datum Zeit Temp. A. Feuchte A. Luftdruck Regen Wind Richtung Richtung Sonnenschein ET UV Solar Taupunkt Windchill Windben Empfang
05.07.2015 00:00 20,6 C 72 % 1018,7 hPa 0,0 l/m 0,0 km/h (0 Bft) NO 35 0 min 0,000 mm 0,0 UV-I 0 W/m 15,4 C 20,6 C 0,0 km/h (0 Bft) 0,00 %
05.07.2015 00:05 20,5 C 73 % 1018,8 hPa 0,0 l/m 0,0 km/h (0 Bft) N-NO 24 0 min 0,000 mm 0,0 UV-I 0 W/m 15,5 C 20,5 C 0,0 km/h (0 Bft) 0,00 %
05.07.2015 00:10 20,4 C 75 % 1018,7 hPa 0,0 l/m 0,0 km/h (0 Bft) N-NO 31 0 min 0,000 mm 0,0 UV-I 0 W/m 15,8 C 20,4 C 0,0 km/h (0 Bft) 0,00 %
05.07.2015 00:15 20,3 C 76 % 1018,6 hPa 0,0 l/m 0,0 km/h (0 Bft) N-NO 31 0 min 0,000 mm 0,0 UV-I 0 W/m 15,9 C 20,3 C 0,0 km/h (0 Bft) 0,00 %
05.07.2015 00:20 20,1 C 76 % 1018,8 hPa 0,0 l/m 0,0 km/h (0 Bft) N-NO 33 0 min 0,000 mm 0,0 UV-I 0 W/m 15,7 C 20,1 C 0,0 km/h (0 Bft) 0,00 %
05.07.2015 00:25 20,0 C 77 % 1018,8 hPa 0,0 l/m 0,0 km/h (0 Bft) N-NO 33 0 min 0,000 mm 0,0 UV-I 0 W/m 15,8 C 20,0 C 0,0 km/h (0 Bft) 0,00 %
05.07.2015 00:30 19,8 C 76 % 1018,8 hPa 0,0 l/m 0,0 km/h (0 Bft) N-NO 33 0 min 0,000 mm 0,0 UV-I 0 W/m 15,4 C 19,8 C 0,0 km/h (0 Bft) 0,00 %
05.07.2015 00:35 19,7 C 77 % 1018,8 hPa 0,0 l/m 0,0 km/h (0 Bft) N-NO 33 0 min 0,000 mm 0,0 UV-I 0 W/m 15,5 C 19,7 C 0,0 km/h (0 Bft) 0,00 %
05.07.2015 00:40 19,6 C 77 % 1018,6 hPa 0,0 l/m 0,0 km/h (0 Bft) N-NO 33 0 min 0,000 mm 0,0 UV-I 0 W/m 15,5 C 19,6 C 0,0 km/h (0 Bft) 0,00 %
05.07.2015 00:45 19,5 C 79 % 1018,7 hPa 0,0 l/m 0,0 km/h (0 Bft) N-NO 33 0 min 0,000 mm 0,0 UV-I 0 W/m 15,8 C 19,5 C 0,0 km/h (0 Bft) 0,00 %
05.07.2015 00:50 19,4 C 80 % 1018,6 hPa 0,0 l/m 0,0 km/h (0 Bft) N-NO 33 0 min 0,000 mm 0,0 UV-I 0 W/m 15,9 C 19,4 C 0,0 km/h (0 Bft) 0,00 %
05.07.2015 00:55 19,3 C 80 % 1018,7 hPa 0,0 l/m 0,0 km/h (0 Bft) NO 40 0 min 0,000 mm 0,0 UV-I 0 W/m 15,8 C 19,3 C 0,0 km/h (0 Bft) 0,00 %
05.07.2015 01:00 19,3 C 80 % 1018,9 hPa 0,0 l/m 0,0 km/h (0 Bft) NO 40 0 min 0,000 mm 0,0 UV-I 0 W/m 15,8 C 19,3 C 0,0 km/h (0 Bft) 0,00 %
05.07.2015 01:05 19,2 C 80 % 1018,8 hPa 0,0 l/m 0,0 km/h (0 Bft) NO 40 0 min 0,000 mm 0,0 UV-I 0 W/m 15,7 C 19,2 C 0,0 km/h (0 Bft) 0,00 %
05.07.2015 01:10 19,1 C 81 % 1018,8 hPa 0,0 l/m 0,0 km/h (0 Bft) NO 37 0 min 0,000 mm 0,0 UV-I 0 W/m 15,8 C 19,1 C 0,0 km/h (0 Bft) 0,00 %
05.07.2015 01:15 19,1 C 82 % 1018,7 hPa 0,0 l/m 0,0 km/h (0 Bft) NO 41 0 min 0,000 mm 0,0 UV-I 0 W/m 16,0 C 19,1 C 0,0 km/h (0 Bft) 0,00 %
05.07.2015 01:20 19,0 C 82 % 1018,7 hPa 0,0 l/m 0,0 km/h (0 Bft) NO 41 0 min 0,000 mm 0,0 UV-I 0 W/m 15,9 C 19,0 C 0,0 km/h (0 Bft) 0,00 %
05.07.2015 01:25 18,9 C 82 % 1018,7 hPa 0,0 l/m 0,0 km/h (0 Bft) NO 41 0 min 0,000 mm 0,0 UV-I 0 W/m 15,8 C 18,9 C 0,0 km/h (0 Bft) 0,00 %
05.07.2015 01:30 18,8 C 82 % 1018,8 hPa 0,0 l/m 0,0 km/h (0 Bft) NO 40 0 min 0,000 mm 0,0 UV-I 0 W/m 15,7 C 18,8 C 0,0 km/h (0 Bft) 0,00 %
05.07.2015 01:35 18,7 C 83 % 1018,8 hPa 0,0 l/m 0,0 km/h (0 Bft) NO 40 0 min 0,000 mm 0,0 UV-I 0 W/m 15,8 C 18,7 C 0,0 km/h (0 Bft) 0,00 %
05.07.2015 01:40 18,6 C 83 % 1018,9 hPa 0,0 l/m 0,0 km/h (0 Bft) NO 38 0 min 0,000 mm 0,0 UV-I 0 W/m 15,7 C 18,6 C 0,0 km/h (0 Bft) 0,00 %
05.07.2015 01:45 18,5 C 83 % 1018,9 hPa 0,0 l/m 0,0 km/h (0 Bft) NO 38 0 min 0,000 mm 0,0 UV-I 0 W/m 15,6 C 18,5 C 0,0 km/h (0 Bft) 0,00 %
05.07.2015 01:50 18,4 C 83 % 1019,0 hPa 0,0 l/m 0,0 km/h (0 Bft) NO 38 0 min 0,000 mm 0,0 UV-I 0 W/m 15,5 C 18,4 C 0,0 km/h (0 Bft) 0,00 %
05.07.2015 01:55 18,3 C 84 % 1019,0 hPa 0,0 l/m 0,0 km/h (0 Bft) NO 38 0 min 0,000 mm 0,0 UV-I 0 W/m 15,5 C 18,3 C 0,0 km/h (0 Bft) 0,00 %
05.07.2015 02:00 18,2 C 85 % 1019,0 hPa 0,0 l/m 0,0 km/h (0 Bft) NO 38 0 min 0,000 mm 0,0 UV-I 0 W/m 15,6 C 18,2 C 0,0 km/h (0 Bft) 0,00 %
05.07.2015 02:05 18,1 C 85 % 1019,1 hPa 0,0 l/m 0,0 km/h (0 Bft) NO 38 0 min 0,000 mm 0,0 UV-I 0 W/m 15,5 C 18,1 C 0,0 km/h (0 Bft) 0,00 %
05.07.2015 02:10 18,0 C 85 % 1019,0 hPa 0,0 l/m 0,0 km/h (0 Bft) NO 38 0 min 0,000 mm 0,0 UV-I 0 W/m 15,4 C 18,0 C 0,0 km/h (0 Bft) 0,00 %
05.07.2015 02:15 17,9 C 85 % 1019,1 hPa 0,0 l/m 0,0 km/h (0 Bft) NO 38 0 min 0,000 mm 0,0 UV-I 0 W/m 15,3 C 17,9 C 0,0 km/h (0 Bft) 0,00 %
05.07.2015 02:20 17,8 C 84 % 1019,1 hPa 0,0 l/m 0,0 km/h (0 Bft) NO 38 0 min 0,000 mm 0,0 UV-I 0 W/m 15,1 C 17,8 C 0,0 km/h (0 Bft) 0,00 %
05.07.2015 02:25 17,8 C 84 % 1019,3 hPa 0,0 l/m 0,0 km/h (0 Bft) NO 38 0 min 0,000 mm 0,0 UV-I 0 W/m 15,1 C 17,8 C 0,0 km/h (0 Bft) 0,00 %
05.07.2015 02:30 17,7 C 85 % 1019,1 hPa 0,0 l/m 0,0 km/h (0 Bft) NO 38 0 min 0,000 mm 0,0 UV-I 0 W/m 15,1 C 17,7 C 0,0 km/h (0 Bft) 0,00 %
05.07.2015 02:35 17,7 C 85 % 1019,0 hPa 0,0 l/m 0,0 km/h (0 Bft) NO 42 0 min 0,000 mm 0,0 UV-I 0 W/m 15,1 C 17,7 C 0,0 km/h (0 Bft) 0,00 %
05.07.2015 02:40 17,6 C 84 % 1019,2 hPa 0,0 l/m 0,0 km/h (0 Bft) NO 42 0 min 0,000 mm 0,0 UV-I 0 W/m 14,9 C 17,6 C 0,0 km/h (0 Bft) 0,00 %
05.07.2015 02:45 17,6 C 84 % 1019,2 hPa 0,0 l/m 0,0 km/h (0 Bft) N-NW 345 0 min 0,000 mm 0,0 UV-I 0 W/m 14,9 C 17,6 C 0,0 km/h (0 Bft) 0,00 %
05.07.2015 02:50 17,5 C 85 % 1019,1 hPa 0,0 l/m 0,0 km/h (0 Bft) NO 36 0 min 0,000 mm 0,0 UV-I 0 W/m 14,9 C 17,5 C 0,0 km/h (0 Bft) 0,00 %
05.07.2015 02:55 17,4 C 85 % 1019,4 hPa 0,0 l/m 0,0 km/h (0 Bft) NO 36 0 min 0,000 mm 0,0 UV-I 0 W/m 14,8 C 17,4 C 0,0 km/h (0 Bft) 0,00 %
05.07.2015 03:00 17,3 C 85 % 1019,3 hPa 0,0 l/m 0,0 km/h (0 Bft) NO 37 0 min 0,000 mm 0,0 UV-I 0 W/m 14,8 C 17,3 C 0,0 km/h (0 Bft) 0,00 %
05.07.2015 03:05 17,3 C 85 % 1019,3 hPa 0,0 l/m 0,0 km/h (0 Bft) NO 37 0 min 0,000 mm 0,0 UV-I 0 W/m 14,8 C 17,3 C 0,0 km/h (0 Bft) 0,00 %
05.07.2015 03:10 17,2 C 85 % 1019,4 hPa 0,0 l/m 0,0 km/h (0 Bft) NO 37 0 min 0,000 mm 0,0 UV-I 0 W/m 14,7 C 17,2 C 0,0 km/h (0 Bft) 0,00 %
05.07.2015 03:15 17,2 C 85 % 1019,4 hPa 0,0 l/m 0,0 km/h (0 Bft) NO 37 0 min 0,000 mm 0,0 UV-I 0 W/m 14,7 C 17,2 C 0,0 km/h (0 Bft) 0,00 %
05.07.2015 03:20 17,1 C 85 % 1019,2 hPa 0,0 l/m 0,0 km/h (0 Bft) NO 37 0 min 0,000 mm 0,0 UV-I 0 W/m 14,6 C 17,1 C 0,0 km/h (0 Bft) 0,00 %
05.07.2015 03:25 17,1 C 85 % 1019,3 hPa 0,0 l/m 0,0 km/h (0 Bft) NO 37 0 min 0,000 mm 0,0 UV-I 0 W/m 14,6 C 17,1 C 0,0 km/h (0 Bft) 0,00 %
05.07.2015 03:30 17,1 C 85 % 1019,1 hPa 0,0 l/m 0,0 km/h (0 Bft) NO 37 0 min 0,000 mm 0,0 UV-I 0 W/m 14,6 C 17,1 C 0,0 km/h (0 Bft) 0,00 %
05.07.2015 03:35 17,0 C 85 % 1019,1 hPa 0,0 l/m 0,0 km/h (0 Bft) NO 37 0 min 0,000 mm 0,0 UV-I 0 W/m 14,5 C 17,0 C 0,0 km/h (0 Bft) 0,00 %
05.07.2015 03:40 17,0 C 85 % 1019,1 hPa 0,0 l/m 0,0 km/h (0 Bft) NO 37 0 min 0,000 mm 0,0 UV-I 0 W/m 14,5 C 17,0 C 0,0 km/h (0 Bft) 0,00 %
05.07.2015 03:45 17,0 C 85 % 1018,9 hPa 0,0 l/m 0,0 km/h (0 Bft) NO 37 0 min 0,000 mm 0,0 UV-I 0 W/m 14,5 C 17,0 C 0,0 km/h (0 Bft) 0,00 %
05.07.2015 03:50 16,9 C 86 % 1019,2 hPa 0,0 l/m 0,0 km/h (0 Bft) NO 37 0 min 0,000 mm 0,0 UV-I 0 W/m 14,5 C 16,9 C 0,0 km/h (0 Bft) 0,00 %
05.07.2015 03:55 16,8 C 86 % 1019,0 hPa 0,0 l/m 0,0 km/h (0 Bft) N 356 0 min 0,000 mm 0,0 UV-I 0 W/m 14,4 C 16,8 C 0,0 km/h (0 Bft) 0,00 %
05.07.2015 04:00 16,7 C 86 % 1019,1 hPa 0,0 l/m 0,0 km/h (0 Bft) N-NO 24 0 min 0,000 mm 0,0 UV-I 0 W/m 14,3 C 16,7 C 0,0 km/h (0 Bft) 0,00 %
05.07.2015 04:05 16,6 C 86 % 1019,3 hPa 0,0 l/m 0,0 km/h (0 Bft) N-NO 24 0 min 0,000 mm 0,0 UV-I 0 W/m 14,2 C 16,6 C 0,0 km/h (0 Bft) 0,00 %
05.07.2015 04:10 16,5 C 85 % 1019,2 hPa 0,0 l/m 0,0 km/h (0 Bft) N-NO 24 0 min 0,000 mm 0,0 UV-I 0 W/m 14,0 C 16,5 C 0,0 km/h (0 Bft) 0,00 %
05.07.2015 04:15 16,4 C 86 % 1019,3 hPa 0,0 l/m 0,0 km/h (0 Bft) N-NO 24 0 min 0,000 mm 0,0 UV-I 0 W/m 14,1 C 16,4 C 0,0 km/h (0 Bft) 0,00 %
05.07.2015 04:20 16,3 C 86 % 1019,2 hPa 0,0 l/m 0,0 km/h (0 Bft) N-NO 25 0 min 0,000 mm 0,0 UV-I 0 W/m 14,0 C 16,3 C 0,0 km/h (0 Bft) 0,00 %
05.07.2015 04:25 16,3 C 87 % 1019,2 hPa 0,0 l/m 0,0 km/h (0 Bft) N-NO 25 0 min 0,000 mm 0,0 UV-I 0 W/m 14,1 C 16,3 C 0,0 km/h (0 Bft) 0,00 %
05.07.2015 04:30 16,2 C 87 % 1019,6 hPa 0,0 l/m 0,0 km/h (0 Bft) N-NO 25 0 min 0,000 mm 0,0 UV-I 0 W/m 14,0 C 16,2 C 0,0 km/h (0 Bft) 0,00 %
05.07.2015 04:35 16,2 C 87 % 1019,3 hPa 0,0 l/m 0,0 km/h (0 Bft) N-NO 25 0 min 0,000 mm 0,0 UV-I 0 W/m 14,0 C 16,2 C 0,0 km/h (0 Bft) 0,00 %
05.07.2015 04:40 16,1 C 87 % 1019,3 hPa 0,0 l/m 0,0 km/h (0 Bft) N-NO 28 0 min 0,000 mm 0,0 UV-I 0 W/m 13,9 C 16,1 C 0,0 km/h (0 Bft) 0,00 %
05.07.2015 04:45 16,1 C 87 % 1019,5 hPa 0,0 l/m 0,0 km/h (0 Bft) NO 39 0 min 0,000 mm 0,0 UV-I 0 W/m 13,9 C 16,1 C 0,0 km/h (0 Bft) 0,00 %
05.07.2015 04:50 16,1 C 87 % 1019,0 hPa 0,0 l/m 0,0 km/h (0 Bft) NO 39 0 min 0,000 mm 0,0 UV-I 0 W/m 13,9 C 16,1 C 0,0 km/h (0 Bft) 0,00 %
05.07.2015 04:55 16,0 C 87 % 1019,2 hPa 0,0 l/m 0,0 km/h (0 Bft) NO 39 0 min 0,000 mm 0,0 UV-I 0 W/m 13,8 C 16,0 C 0,0 km/h (0 Bft) 0,00 %
05.07.2015 05:00 16,0 C 87 % 1019,3 hPa 0,0 l/m 0,0 km/h (0 Bft) NO 39 0 min 0,000 mm 0,0 UV-I 0 W/m 13,8 C 16,0 C 0,0 km/h (0 Bft) 0,00 %
05.07.2015 05:05 16,0 C 87 % 1019,1 hPa 0,0 l/m 0,0 km/h (0 Bft) NO 39 0 min 0,000 mm 0,0 UV-I 0 W/m 13,8 C 16,0 C 0,0 km/h (0 Bft) 0,00 %
05.07.2015 05:10 16,0 C 87 % 1018,9 hPa 0,0 l/m 0,0 km/h (0 Bft) NO 39 0 min 0,000 mm 0,0 UV-I 0 W/m 13,8 C 16,0 C 0,0 km/h (0 Bft) 0,00 %
05.07.2015 05:15 16,0 C 87 % 1018,9 hPa 0,0 l/m 0,0 km/h (0 Bft) NO 39 0 min 0,000 mm 0,0 UV-I 0 W/m 13,8 C 16,0 C 0,0 km/h (0 Bft) 0,00 %
05.07.2015 05:20 16,0 C 86 % 1018,7 hPa 0,0 l/m 0,0 km/h (0 Bft) NO 39 0 min 0,000 mm 0,0 UV-I 1 W/m 13,7 C 16,0 C 0,0 km/h (0 Bft) 0,00 %
05.07.2015 05:25 16,0 C 86 % 1019,0 hPa 0,0 l/m 0,0 km/h (0 Bft) NO 38 0 min 0,000 mm 0,0 UV-I 4 W/m 13,7 C 16,0 C 0,0 km/h (0 Bft) 0,00 %
05.07.2015 05:30 16,1 C 85 % 1018,8 hPa 0,0 l/m 0,0 km/h (0 Bft) NO 38 0 min 0,000 mm 0,0 UV-I 8 W/m 13,6 C 16,1 C 0,0 km/h (0 Bft) 0,00 %
05.07.2015 05:35 16,1 C 85 % 1019,0 hPa 0,0 l/m 0,0 km/h (0 Bft) NO 38 0 min 0,000 mm 0,0 UV-I 16 W/m 13,6 C 16,1 C 0,0 km/h (0 Bft) 0,00 %
05.07.2015 05:40 16,1 C 86 % 1019,0 hPa 0,0 l/m 0,0 km/h (0 Bft) NO 38 0 min 0,000 mm 0,0 UV-I 22 W/m 13,8 C 16,1 C 0,0 km/h (0 Bft) 0,00 %
05.07.2015 05:45 16,0 C 86 % 1019,0 hPa 0,0 l/m 0,0 km/h (0 Bft) NO 38 0 min 0,000 mm 0,0 UV-I 29 W/m 13,7 C 16,0 C 0,0 km/h (0 Bft) 0,00 %
05.07.2015 05:50 16,0 C 87 % 1019,0 hPa 0,0 l/m 0,0 km/h (0 Bft) NO 38 0 min 0,000 mm 0,0 UV-I 40 W/m 13,8 C 16,0 C 0,0 km/h (0 Bft) 0,00 %
05.07.2015 05:55 16,0 C 87 % 1019,0 hPa 0,0 l/m 0,0 km/h (0 Bft) NO 40 5 min 0,000 mm 0,0 UV-I 60 W/m 13,8 C 16,0 C 0,0 km/h (0 Bft) 0,00 %
05.07.2015 06:00 16,3 C 86 % 1018,7 hPa 0,0 l/m 0,0 km/h (0 Bft) NO 41 5 min 0,000 mm 0,0 UV-I 89 W/m 14,0 C 16,3 C 0,0 km/h (0 Bft) 0,00 %
05.07.2015 06:05 16,8 C 86 % 1018,8 hPa 0,0 l/m 0,0 km/h (0 Bft) NO 41 5 min 0,000 mm 0,0 UV-I 104 W/m 14,4 C 16,8 C 0,0 km/h (0 Bft) 0,00 %
05.07.2015 06:10 17,5 C 82 % 1018,7 hPa 0,0 l/m 0,0 km/h (0 Bft) NO 41 5 min 0,000 mm 0,0 UV-I 122 W/m 14,4 C 17,5 C 0,0 km/h (0 Bft) 0,00 %
05.07.2015 06:15 18,2 C 81 % 1018,7 hPa 0,0 l/m 0,0 km/h (0 Bft) NO 41 5 min 0,000 mm 0,0 UV-I 132 W/m 14,9 C 18,2 C 0,0 km/h (0 Bft) 0,00 %
05.07.2015 06:20 18,8 C 77 % 1018,5 hPa 0,0 l/m 0,0 km/h (0 Bft) NO 41 5 min 0,000 mm 0,0 UV-I 151 W/m 14,7 C 18,8 C 0,0 km/h (0 Bft) 0,00 %
05.07.2015 06:25 19,3 C 74 % 1018,5 hPa 0,0 l/m 0,0 km/h (0 Bft) N-NO 20 5 min 0,000 mm 0,0 UV-I 173 W/m 14,5 C 19,3 C 0,0 km/h (0 Bft) 0,00 %
05.07.2015 06:30 19,5 C 72 % 1018,6 hPa 0,0 l/m 0,0 km/h (0 Bft) N-NO 20 5 min 0,000 mm 1,0 UV-I 194 W/m 14,3 C 19,5 C 0,0 km/h (0 Bft) 0,00 %
05.07.2015 06:35 19,8 C 71 % 1018,5 hPa 0,0 l/m 0,0 km/h (0 Bft) N-NO 20 5 min 0,000 mm 1,0 UV-I 204 W/m 14,4 C 19,8 C 0,0 km/h (0 Bft) 0,00 %
05.07.2015 06:40 20,1 C 69 % 1018,4 hPa 0,0 l/m 0,0 km/h (0 Bft) N 11 5 min 0,000 mm 1,0 UV-I 235 W/m 14,2 C 20,1 C 0,0 km/h (0 Bft) 0,00 %
05.07.2015 06:45 20,5 C 68 % 1018,4 hPa 0,0 l/m 0,0 km/h (0 Bft) N-NO 16 5 min 0,000 mm 1,0 UV-I 248 W/m 14,4 C 20,5 C 0,0 km/h (0 Bft) 0,00 %
05.07.2015 06:50 20,7 C 67 % 1018,6 hPa 0,0 l/m 0,0 km/h (0 Bft) N-NO 19 5 min 0,000 mm 1,0 UV-I 269 W/m 14,3 C 20,7 C 0,0 km/h (0 Bft) 0,00 %
05.07.2015 06:55 21,0 C 64 % 1018,3 hPa 0,0 l/m 0,0 km/h (0 Bft) N-NO 20 5 min 0,000 mm 1,0 UV-I 287 W/m 13,9 C 21,0 C 0,0 km/h (0 Bft) 0,00 %
05.07.2015 07:00 21,5 C 63 % 1018,4 hPa 0,0 l/m 0,0 km/h (0 Bft) N-NO 20 5 min 0,000 mm 1,0 UV-I 308 W/m 14,2 C 21,5 C 0,0 km/h (0 Bft) 0,00 %
05.07.2015 07:05 22,0 C 62 % 1018,3 hPa 0,0 l/m 0,0 km/h (0 Bft) N-NO 18 5 min 0,000 mm 1,0 UV-I 326 W/m 14,4 C 22,0 C 0,0 km/h (0 Bft) 0,00 %
05.07.2015 07:10 22,5 C 61 % 1018,2 hPa 0,0 l/m 0,0 km/h (0 Bft) N-NO 24 5 min 0,000 mm 1,0 UV-I 336 W/m 14,6 C 22,5 C 0,0 km/h (0 Bft) 0,00 %
05.07.2015 07:15 23,0 C 57 % 1017,9 hPa 0,0 l/m 0,0 km/h (0 Bft) N-NO 23 5 min 0,000 mm 1,0 UV-I 353 W/m 14,0 C 23,0 C 0,0 km/h (0 Bft) 0,00 %
05.07.2015 07:20 23,3 C 58 % 1018,1 hPa 0,0 l/m 0,0 km/h (0 Bft) N-NO 25 5 min 0,000 mm 1,0 UV-I 369 W/m 14,6 C 23,3 C 0,0 km/h (0 Bft) 0,00 %
05.07.2015 07:25 23,6 C 55 % 1017,9 hPa 0,0 l/m 0,0 km/h (0 Bft) N-NO 18 5 min 0,000 mm 1,0 UV-I 380 W/m 14,0 C 23,6 C 0,0 km/h (0 Bft) 0,00 %
05.07.2015 07:30 23,9 C 57 % 1017,8 hPa 0,0 l/m 0,0 km/h (0 Bft) N-NO 21 5 min 0,000 mm 1,0 UV-I 386 W/m 14,9 C 23,9 C 0,0 km/h (0 Bft) 0,00 %
05.07.2015 07:35 24,1 C 58 % 1017,7 hPa 0,0 l/m 0,0 km/h (0 Bft) N-NO 23 5 min 0,000 mm 1,0 UV-I 396 W/m 15,3 C 24,1 C 0,0 km/h (0 Bft) 0,00 %
05.07.2015 07:40 24,1 C 57 % 1017,7 hPa 0,0 l/m 0,0 km/h (0 Bft) N-NO 21 5 min 0,000 mm 1,0 UV-I 406 W/m 15,0 C 24,1 C 0,0 km/h (0 Bft) 0,00 %
05.07.2015 07:45 24,4 C 53 % 1017,8 hPa 0,0 l/m 0,0 km/h (0 Bft) NW 310 5 min 0,000 mm 1,0 UV-I 413 W/m 14,2 C 24,4 C 0,0 km/h (0 Bft) 0,00 %
05.07.2015 07:50 24,8 C 55 % 1017,9 hPa 0,0 l/m 0,0 km/h (0 Bft) NO 46 5 min 0,000 mm 1,0 UV-I 420 W/m 15,1 C 24,8 C 0,0 km/h (0 Bft) 0,00 %
05.07.2015 07:55 25,0 C 59 % 1017,8 hPa 0,0 l/m 0,0 km/h (0 Bft) N-NO 23 5 min 0,000 mm 1,0 UV-I 434 W/m 16,4 C 25,0 C 0,0 km/h (0 Bft) 0,00 %
05.07.2015 08:00 24,8 C 54 % 1017,7 hPa 0,0 l/m 0,0 km/h (0 Bft) N-NO 26 5 min 0,000 mm 1,0 UV-I 437 W/m 14,8 C 24,8 C 0,0 km/h (0 Bft) 0,00 %
05.07.2015 08:05 25,1 C 52 % 1017,6 hPa 0,0 l/m 0,0 km/h (0 Bft) N-NO 31 5 min 0,000 mm 1,0 UV-I 439 W/m 14,5 C 25,1 C 0,0 km/h (0 Bft) 0,00 %
05.07.2015 08:10 25,6 C 51 % 1017,6 hPa 0,0 l/m 0,0 km/h (0 Bft) O-NO 66 5 min 0,000 mm 1,0 UV-I 435 W/m 14,7 C 25,6 C 0,0 km/h (0 Bft) 0,00 %
05.07.2015 08:15 25,7 C 51 % 1017,7 hPa 0,0 l/m 2,2 km/h (1 Bft) N-NW 347 5 min 0,000 mm 1,0 UV-I 458 W/m 14,8 C 25,7 C 4,0 km/h (1 Bft) 0,00 %
05.07.2015 08:20 25,7 C 51 % 1017,7 hPa 0,0 l/m 0,0 km/h (0 Bft) N-NO 28 5 min 0,000 mm 2,0 UV-I 449 W/m 14,8 C 25,7 C 0,0 km/h (0 Bft) 0,00 %
05.07.2015 08:25 25,6 C 52 % 1017,6 hPa 0,0 l/m 0,0 km/h (0 Bft) N 352 5 min 0,000 mm 2,0 UV-I 461 W/m 15,0 C 25,6 C 0,0 km/h (0 Bft) 0,00 %
05.07.2015 08:30 25,6 C 52 % 1017,7 hPa 0,0 l/m 0,0 km/h (0 Bft) NO 40 5 min 0,000 mm 2,0 UV-I 470 W/m 15,0 C 25,6 C 0,0 km/h (0 Bft) 0,00 %
05.07.2015 08:35 25,5 C 53 % 1017,6 hPa 0,0 l/m 0,0 km/h (0 Bft) N-NO 31 5 min 0,000 mm 2,0 UV-I 478 W/m 15,2 C 25,5 C 0,0 km/h (0 Bft) 0,00 %
05.07.2015 08:40 25,6 C 53 % 1017,7 hPa 0,0 l/m 0,4 km/h (0 Bft) N 351 5 min 0,000 mm 2,0 UV-I 450 W/m 15,3 C 25,6 C 4,0 km/h (1 Bft) 0,00 %
05.07.2015 08:45 26,0 C 51 % 1017,5 hPa 0,0 l/m 0,0 km/h (0 Bft) NO 35 5 min 0,000 mm 2,0 UV-I 494 W/m 15,1 C 26,0 C 0,0 km/h (0 Bft) 0,00 %
05.07.2015 08:50 26,3 C 50 % 1017,5 hPa 0,0 l/m 0,4 km/h (0 Bft) NO 35 5 min 0,000 mm 2,0 UV-I 503 W/m 15,0 C 26,3 C 4,0 km/h (1 Bft) 0,00 %
05.07.2015 08:55 26,7 C 49 % 1017,5 hPa 0,0 l/m 0,0 km/h (0 Bft) N 11 5 min 0,000 mm 2,0 UV-I 512 W/m 15,1 C 26,7 C 0,0 km/h (0 Bft) 0,00 %
05.07.2015 09:00 26,9 C 49 % 1017,4 hPa 0,0 l/m 1,4 km/h (1 Bft) N-NO 28 5 min 0,000 mm 2,0 UV-I 486 W/m 15,3 C 26,9 C 4,0 km/h (1 Bft) 0,00 %
05.07.2015 09:05 27,0 C 51 % 1017,5 hPa 0,0 l/m 0,0 km/h (0 Bft) NO 46 5 min 0,000 mm 2,0 UV-I 532 W/m 16,0 C 27,0 C 0,0 km/h (0 Bft) 0,00 %
05.07.2015 09:10 26,9 C 51 % 1017,4 hPa 0,0 l/m 0,0 km/h (0 Bft) O-NO 61 5 min 0,000 mm 2,0 UV-I 540 W/m 15,9 C 26,9 C 0,0 km/h (0 Bft) 0,00 %
05.07.2015 09:15 26,9 C 52 % 1017,3 hPa 0,0 l/m 0,4 km/h (0 Bft) O 99 5 min 0,000 mm 2,0 UV-I 545 W/m 16,2 C 26,9 C 4,0 km/h (1 Bft) 0,00 %
05.07.2015 09:20 27,2 C 49 % 1017,3 hPa 0,0 l/m 0,0 km/h (0 Bft) N-NO 28 5 min 0,000 mm 2,0 UV-I 555 W/m 15,5 C 27,2 C 0,0 km/h (0 Bft) 0,00 %
05.07.2015 09:25 27,5 C 47 % 1017,3 hPa 0,0 l/m 0,4 km/h (0 Bft) O 91 5 min 0,000 mm 2,0 UV-I 558 W/m 15,2 C 27,5 C 4,0 km/h (1 Bft) 0,00 %
05.07.2015 09:30 27,7 C 48 % 1017,1 hPa 0,0 l/m 0,0 km/h (0 Bft) NO 54 5 min 0,000 mm 2,0 UV-I 579 W/m 15,7 C 27,7 C 0,0 km/h (0 Bft) 0,00 %
05.07.2015 09:35 27,9 C 48 % 1017,0 hPa 0,0 l/m 0,0 km/h (0 Bft) N-NO 16 5 min 0,000 mm 2,0 UV-I 595 W/m 15,9 C 27,9 C 0,0 km/h (0 Bft) 0,00 %
05.07.2015 09:40 27,8 C 45 % 1017,0 hPa 0,0 l/m 0,0 km/h (0 Bft) O-SO 106 5 min 0,000 mm 2,0 UV-I 612 W/m 14,8 C 27,8 C 0,0 km/h (0 Bft) 0,00 %
05.07.2015 09:45 27,9 C 46 % 1017,0 hPa 0,0 l/m 0,0 km/h (0 Bft) NO 42 5 min 0,000 mm 3,0 UV-I 622 W/m 15,2 C 27,9 C 0,0 km/h (0 Bft) 0,00 %
05.07.2015 09:50 28,3 C 45 % 1016,8 hPa 0,0 l/m 0,0 km/h (0 Bft) NO 48 5 min 0,000 mm 3,0 UV-I 626 W/m 15,2 C 28,3 C 0,0 km/h (0 Bft) 0,00 %
05.07.2015 09:55 28,8 C 44 % 1016,8 hPa 0,0 l/m 0,7 km/h (0 Bft) N-NO 27 5 min 0,000 mm 3,0 UV-I 631 W/m 15,3 C 28,8 C 4,0 km/h (1 Bft) 0,00 %
05.07.2015 10:00 29,3 C 44 % 1016,8 hPa 0,0 l/m 0,0 km/h (0 Bft) NO 49 5 min 0,000 mm 3,0 UV-I 645 W/m 15,8 C 29,3 C 0,0 km/h (0 Bft) 0,00 %
05.07.2015 10:05 29,3 C 44 % 1017,0 hPa 0,0 l/m 0,0 km/h (0 Bft) N-NO 27 5 min 0,000 mm 3,0 UV-I 653 W/m 15,8 C 29,3 C 0,0 km/h (0 Bft) 0,00 %
05.07.2015 10:10 29,3 C 45 % 1016,7 hPa 0,0 l/m 0,0 km/h (0 Bft) N-NO 23 5 min 0,000 mm 3,0 UV-I 662 W/m 16,1 C 29,3 C 0,0 km/h (0 Bft) 0,00 %
05.07.2015 10:15 29,2 C 45 % 1016,7 hPa 0,0 l/m 0,0 km/h (0 Bft) N-NO 23 5 min 0,000 mm 3,0 UV-I 673 W/m 16,0 C 29,2 C 0,0 km/h (0 Bft) 0,00 %
05.07.2015 10:20 29,2 C 45 % 1016,8 hPa 0,0 l/m 0,0 km/h (0 Bft) N-NO 32 5 min 0,000 mm 3,0 UV-I 681 W/m 16,0 C 29,2 C 0,0 km/h (0 Bft) 0,00 %
05.07.2015 10:25 29,4 C 44 % 1016,7 hPa 0,0 l/m 0,7 km/h (0 Bft) N-NW 332 5 min 0,000 mm 3,0 UV-I 697 W/m 15,8 C 29,4 C 4,0 km/h (1 Bft) 0,00 %
05.07.2015 10:30 29,6 C 45 % 1016,5 hPa 0,0 l/m 0,0 km/h (0 Bft) NO 48 5 min 0,000 mm 3,0 UV-I 709 W/m 16,4 C 29,6 C 0,0 km/h (0 Bft) 0,00 %
05.07.2015 10:35 29,6 C 44 % 1016,3 hPa 0,0 l/m 0,0 km/h (0 Bft) O-NO 62 5 min 0,000 mm 3,0 UV-I 721 W/m 16,0 C 29,6 C 0,0 km/h (0 Bft) 0,00 %
05.07.2015 10:40 29,6 C 46 % 1016,3 hPa 0,0 l/m 0,0 km/h (0 Bft) N-NO 22 5 min 0,000 mm 3,0 UV-I 725 W/m 16,7 C 29,6 C 0,0 km/h (0 Bft) 0,00 %
05.07.2015 10:45 29,7 C 44 % 1016,3 hPa 0,0 l/m 0,0 km/h (0 Bft) NO 49 5 min 0,000 mm 4,0 UV-I 742 W/m 16,1 C 29,7 C 0,0 km/h (0 Bft) 0,00 %
05.07.2015 10:50 29,9 C 43 % 1016,2 hPa 0,0 l/m 1,4 km/h (1 Bft) O 92 5 min 0,000 mm 4,0 UV-I 749 W/m 15,9 C 29,9 C 4,0 km/h (1 Bft) 0,00 %
05.07.2015 10:55 29,9 C 43 % 1016,2 hPa 0,0 l/m 2,2 km/h (1 Bft) N-NW 347 5 min 0,000 mm 4,0 UV-I 749 W/m 15,9 C 29,9 C 4,0 km/h (1 Bft) 0,00 %
05.07.2015 11:00 29,8 C 44 % 1016,4 hPa 0,0 l/m 3,2 km/h (1 Bft) O-NO 78 5 min 0,000 mm 4,0 UV-I 756 W/m 16,2 C 29,8 C 4,0 km/h (1 Bft) 0,00 %
05.07.2015 11:05 29,9 C 43 % 1016,3 hPa 0,0 l/m 0,0 km/h (0 Bft) O 95 5 min 0,000 mm 4,0 UV-I 768 W/m 15,9 C 29,9 C 0,0 km/h (0 Bft) 0,00 %
05.07.2015 11:10 30,1 C 43 % 1016,3 hPa 0,0 l/m 0,7 km/h (0 Bft) O-NO 77 5 min 0,000 mm 4,0 UV-I 776 W/m 16,1 C 30,1 C 4,0 km/h (1 Bft) 0,00 %
05.07.2015 11:15 30,2 C 42 % 1015,9 hPa 0,0 l/m 4,7 km/h (1 Bft) O-SO 121 5 min 0,000 mm 4,0 UV-I 778 W/m 15,8 C 30,2 C 7,9 km/h (2 Bft) 0,00 %
05.07.2015 11:20 30,3 C 43 % 1016,0 hPa 0,0 l/m 0,0 km/h (0 Bft) N-NO 31 5 min 0,000 mm 4,0 UV-I 796 W/m 16,3 C 30,3 C 0,0 km/h (0 Bft) 0,00 %
05.07.2015 11:25 30,6 C 42 % 1016,1 hPa 0,0 l/m 1,4 km/h (1 Bft) NW 324 5 min 0,000 mm 5,0 UV-I 801 W/m 16,2 C 30,6 C 4,0 km/h (1 Bft) 0,00 %
05.07.2015 11:30 30,9 C 41 % 1016,0 hPa 0,0 l/m 0,0 km/h (0 Bft) N-NO 32 5 min 0,000 mm 5,0 UV-I 809 W/m 16,1 C 30,9 C 0,0 km/h (0 Bft) 0,00 %
05.07.2015 11:35 31,0 C 40 % 1016,0 hPa 0,0 l/m 0,0 km/h (0 Bft) O 80 5 min 0,000 mm 5,0 UV-I 813 W/m 15,8 C 31,0 C 0,0 km/h (0 Bft) 0,00 %
05.07.2015 11:40 30,9 C 42 % 1016,0 hPa 0,0 l/m 0,7 km/h (0 Bft) N-NO 17 5 min 0,000 mm 5,0 UV-I 812 W/m 16,5 C 30,9 C 4,0 km/h (1 Bft) 0,00 %
05.07.2015 11:45 30,9 C 41 % 1016,0 hPa 0,0 l/m 0,0 km/h (0 Bft) N-NO 32 5 min 0,000 mm 5,0 UV-I 830 W/m 16,1 C 30,9 C 0,0 km/h (0 Bft) 0,00 %
05.07.2015 11:50 31,0 C 43 % 1015,9 hPa 0,0 l/m 0,4 km/h (0 Bft) N-NO 28 5 min 0,000 mm 5,0 UV-I 825 W/m 16,9 C 31,0 C 4,0 km/h (1 Bft) 0,00 %
05.07.2015 11:55 31,1 C 40 % 1015,6 hPa 0,0 l/m 0,4 km/h (0 Bft) NO 46 5 min 0,000 mm 5,0 UV-I 834 W/m 15,9 C 31,1 C 4,0 km/h (1 Bft) 0,00 %
05.07.2015 12:00 31,0 C 42 % 1015,6 hPa 0,0 l/m 0,0 km/h (0 Bft) NO 43 5 min 0,000 mm 5,0 UV-I 841 W/m 16,6 C 31,0 C 0,0 km/h (0 Bft) 0,00 %
05.07.2015 12:05 30,9 C 42 % 1015,6 hPa 0,0 l/m 0,0 km/h (0 Bft) NO 53 5 min 0,000 mm 5,0 UV-I 855 W/m 16,5 C 30,9 C 0,0 km/h (0 Bft) 0,00 %
05.07.2015 12:10 31,0 C 42 % 1015,5 hPa 0,0 l/m 0,0 km/h (0 Bft) N-NO 27 5 min 0,000 mm 5,0 UV-I 860 W/m 16,6 C 31,0 C 0,0 km/h (0 Bft) 0,00 %
05.07.2015 12:15 31,2 C 42 % 1015,6 hPa 0,0 l/m 2,2 km/h (1 Bft) O-SO 122 5 min 0,000 mm 5,0 UV-I 866 W/m 16,7 C 31,2 C 4,0 km/h (1 Bft) 0,00 %
05.07.2015 12:20 31,4 C 40 % 1015,7 hPa 0,0 l/m 0,0 km/h (0 Bft) S-SO 156 5 min 0,000 mm 5,0 UV-I 872 W/m 16,1 C 31,4 C 0,0 km/h (0 Bft) 0,00 %
05.07.2015 12:25 31,4 C 43 % 1015,5 hPa 0,0 l/m 0,0 km/h (0 Bft) NO 51 5 min 0,000 mm 5,0 UV-I 880 W/m 17,3 C 31,4 C 0,0 km/h (0 Bft) 0,00 %
05.07.2015 12:30 31,3 C 40 % 1015,8 hPa 0,0 l/m 2,2 km/h (1 Bft) O 94 5 min 0,000 mm 5,0 UV-I 886 W/m 16,1 C 31,3 C 4,0 km/h (1 Bft) 0,00 %
05.07.2015 12:35 31,5 C 39 % 1015,5 hPa 0,0 l/m 0,7 km/h (0 Bft) O 81 5 min 0,000 mm 5,0 UV-I 895 W/m 15,8 C 31,5 C 4,0 km/h (1 Bft) 0,00 %
05.07.2015 12:40 31,8 C 40 % 1015,4 hPa 0,0 l/m 0,0 km/h (0 Bft) N-NO 21 5 min 0,000 mm 6,0 UV-I 861 W/m 16,5 C 31,8 C 0,0 km/h (0 Bft) 0,00 %
05.07.2015 12:45 31,9 C 39 % 1015,4 hPa 0,0 l/m 0,0 km/h (0 Bft) O 91 5 min 0,000 mm 5,0 UV-I 818 W/m 16,2 C 31,9 C 0,0 km/h (0 Bft) 0,00 %
05.07.2015 12:50 31,9 C 40 % 1015,4 hPa 0,0 l/m 0,0 km/h (0 Bft) NO 43 5 min 0,000 mm 5,0 UV-I 865 W/m 16,6 C 31,9 C 0,0 km/h (0 Bft) 0,00 %
05.07.2015 12:55 31,9 C 39 % 1015,3 hPa 0,0 l/m 0,0 km/h (0 Bft) O 91 5 min 0,000 mm 5,0 UV-I 903 W/m 16,2 C 31,9 C 0,0 km/h (0 Bft) 0,00 %
05.07.2015 13:00 31,9 C 38 % 1015,1 hPa 0,0 l/m 0,0 km/h (0 Bft) NO 50 5 min 0,000 mm 6,0 UV-I 835 W/m 15,8 C 31,9 C 0,0 km/h (0 Bft) 0,00 %
05.07.2015 13:05 31,7 C 39 % 1015,1 hPa 0,0 l/m 0,4 km/h (0 Bft) N-NO 16 5 min 0,000 mm 6,0 UV-I 904 W/m 16,0 C 31,7 C 4,0 km/h (1 Bft) 0,00 %
05.07.2015 13:10 31,5 C 38 % 1015,0 hPa 0,0 l/m 0,0 km/h (0 Bft) NO 46 5 min 0,000 mm 5,0 UV-I 883 W/m 15,4 C 31,5 C 0,0 km/h (0 Bft) 0,00 %
05.07.2015 13:15 31,6 C 38 % 1015,0 hPa 0,0 l/m 2,9 km/h (1 Bft) O 100 5 min 0,000 mm 5,0 UV-I 798 W/m 15,5 C 31,6 C 4,0 km/h (1 Bft) 0,00 %
05.07.2015 13:20 31,6 C 38 % 1014,8 hPa 0,0 l/m 0,0 km/h (0 Bft) N-NO 17 5 min 0,000 mm 5,0 UV-I 854 W/m 15,5 C 31,6 C 0,0 km/h (0 Bft) 0,00 %
05.07.2015 13:25 31,7 C 39 % 1014,9 hPa 0,0 l/m 0,0 km/h (0 Bft) NO 49 5 min 0,000 mm 5,0 UV-I 856 W/m 16,0 C 31,7 C 0,0 km/h (0 Bft) 0,00 %
05.07.2015 13:30 31,9 C 37 % 1014,8 hPa 0,0 l/m 0,0 km/h (0 Bft) O 89 5 min 0,000 mm 5,0 UV-I 794 W/m 15,4 C 31,9 C 0,0 km/h (0 Bft) 0,00 %
05.07.2015 13:35 32,1 C 38 % 1014,6 hPa 0,0 l/m 0,0 km/h (0 Bft) NO 38 5 min 0,000 mm 5,0 UV-I 796 W/m 16,0 C 32,1 C 0,0 km/h (0 Bft) 0,00 %
05.07.2015 13:40 32,4 C 40 % 1014,6 hPa 0,0 l/m 0,0 km/h (0 Bft) N-NO 26 5 min 0,000 mm 4,0 UV-I 811 W/m 17,0 C 32,4 C 0,0 km/h (0 Bft) 0,00 %
05.07.2015 13:45 32,4 C 39 % 1014,5 hPa 0,0 l/m 1,8 km/h (1 Bft) N 355 5 min 0,000 mm 5,0 UV-I 907 W/m 16,6 C 32,4 C 4,0 km/h (1 Bft) 0,00 %
05.07.2015 13:50 32,4 C 37 % 1014,6 hPa 0,0 l/m 0,7 km/h (0 Bft) N-NO 19 5 min 0,000 mm 5,0 UV-I 917 W/m 15,8 C 32,4 C 4,0 km/h (1 Bft) 0,00 %
05.07.2015 13:55 32,4 C 37 % 1014,5 hPa 0,0 l/m 0,0 km/h (0 Bft) NO 37 5 min 0,000 mm 5,0 UV-I 914 W/m 15,8 C 32,4 C 0,0 km/h (0 Bft) 0,00 %
05.07.2015 14:00 32,5 C 35 % 1014,5 hPa 0,0 l/m 0,0 km/h (0 Bft) N-NO 16 5 min 0,000 mm 5,0 UV-I 848 W/m 15,0 C 32,5 C 0,0 km/h (0 Bft) 0,00 %
05.07.2015 14:05 32,5 C 36 % 1014,3 hPa 0,0 l/m 0,0 km/h (0 Bft) N-NO 23 5 min 0,000 mm 4,0 UV-I 898 W/m 15,5 C 32,5 C 0,0 km/h (0 Bft) 0,00 %
05.07.2015 14:10 32,6 C 35 % 1014,3 hPa 0,0 l/m 0,0 km/h (0 Bft) O 89 5 min 0,000 mm 5,0 UV-I 968 W/m 15,1 C 32,6 C 0,0 km/h (0 Bft) 0,00 %
05.07.2015 14:15 32,9 C 32 % 1014,0 hPa 0,0 l/m 0,0 km/h (0 Bft) NO 52 5 min 0,000 mm 5,0 UV-I 937 W/m 14,0 C 32,9 C 0,0 km/h (0 Bft) 0,00 %
05.07.2015 14:20 33,2 C 34 % 1014,2 hPa 0,0 l/m 0,0 km/h (0 Bft) N 355 5 min 0,000 mm 5,0 UV-I 940 W/m 15,2 C 33,2 C 0,0 km/h (0 Bft) 0,00 %
05.07.2015 14:25 33,4 C 33 % 1014,0 hPa 0,0 l/m 0,0 km/h (0 Bft) NO 42 5 min 0,000 mm 5,0 UV-I 986 W/m 14,9 C 33,4 C 0,0 km/h (0 Bft) 0,00 %
05.07.2015 14:30 33,3 C 33 % 1013,9 hPa 0,0 l/m 1,4 km/h (1 Bft) O 94 5 min 0,000 mm 5,0 UV-I 955 W/m 14,8 C 33,3 C 4,0 km/h (1 Bft) 0,00 %
05.07.2015 14:35 33,2 C 34 % 1013,9 hPa 0,0 l/m 0,4 km/h (0 Bft) O-SO 107 5 min 0,000 mm 5,0 UV-I 975 W/m 15,2 C 33,2 C 4,0 km/h (1 Bft) 0,00 %
05.07.2015 14:40 33,1 C 35 % 1014,0 hPa 0,0 l/m 0,0 km/h (0 Bft) NO 43 5 min 0,000 mm 5,0 UV-I 960 W/m 15,6 C 33,1 C 0,0 km/h (0 Bft) 0,00 %
05.07.2015 14:45 33,2 C 31 % 1014,0 hPa 0,0 l/m 0,0 km/h (0 Bft) O 95 5 min 0,000 mm 5,0 UV-I 965 W/m 13,8 C 33,2 C 0,0 km/h (0 Bft) 0,00 %
05.07.2015 14:50 33,3 C 33 % 1013,7 hPa 0,0 l/m 0,0 km/h (0 Bft) W 270 5 min 0,000 mm 5,0 UV-I 979 W/m 14,8 C 33,3 C 0,0 km/h (0 Bft) 0,00 %
05.07.2015 14:55 33,3 C 33 % 1013,8 hPa 0,0 l/m 0,0 km/h (0 Bft) N-NO 16 5 min 0,000 mm 5,0 UV-I 968 W/m 14,8 C 33,3 C 0,0 km/h (0 Bft) 0,00 %
05.07.2015 15:00 33,4 C 32 % 1013,8 hPa 0,0 l/m 0,0 km/h (0 Bft) O-NO 63 5 min 0,000 mm 4,0 UV-I 970 W/m 14,4 C 33,4 C 0,0 km/h (0 Bft) 0,00 %
05.07.2015 15:05 33,5 C 28 % 1013,6 hPa 0,0 l/m 0,0 km/h (0 Bft) N-NO 33 5 min 0,000 mm 4,0 UV-I 954 W/m 12,5 C 33,5 C 0,0 km/h (0 Bft) 0,00 %
05.07.2015 15:10 33,7 C 29 % 1013,6 hPa 0,0 l/m 0,0 km/h (0 Bft) N-NW 347 5 min 0,000 mm 4,0 UV-I 978 W/m 13,2 C 33,7 C 0,0 km/h (0 Bft) 0,00 %
05.07.2015 15:15 33,7 C 31 % 1013,5 hPa 0,0 l/m 2,9 km/h (1 Bft) O 86 5 min 0,000 mm 4,0 UV-I 953 W/m 14,2 C 33,7 C 4,0 km/h (1 Bft) 0,00 %
05.07.2015 15:20 33,7 C 32 % 1013,4 hPa 0,0 l/m 8,3 km/h (2 Bft) O 96 5 min 0,000 mm 4,0 UV-I 968 W/m 14,7 C 33,7 C 11,9 km/h (2 Bft) 0,00 %
05.07.2015 15:25 33,5 C 30 % 1013,2 hPa 0,0 l/m 0,7 km/h (0 Bft) O 98 5 min 0,000 mm 4,0 UV-I 959 W/m 13,5 C 33,5 C 4,0 km/h (1 Bft) 0,00 %
05.07.2015 15:30 33,4 C 31 % 1013,3 hPa 0,0 l/m 2,9 km/h (1 Bft) O-NO 64 5 min 0,000 mm 4,0 UV-I 942 W/m 13,9 C 33,4 C 7,9 km/h (2 Bft) 0,00 %
05.07.2015 15:35 33,4 C 31 % 1013,2 hPa 0,0 l/m 1,4 km/h (1 Bft) O-NO 66 5 min 0,000 mm 4,0 UV-I 930 W/m 13,9 C 33,4 C 7,9 km/h (2 Bft) 0,00 %
05.07.2015 15:40 33,3 C 31 % 1013,2 hPa 0,0 l/m 2,9 km/h (1 Bft) N-NW 339 5 min 0,000 mm 4,0 UV-I 961 W/m 13,8 C 33,3 C 4,0 km/h (1 Bft) 0,00 %
05.07.2015 15:45 33,4 C 31 % 1013,1 hPa 0,0 l/m 2,2 km/h (1 Bft) N-NO 12 5 min 0,000 mm 4,0 UV-I 936 W/m 13,9 C 33,4 C 4,0 km/h (1 Bft) 0,00 %
05.07.2015 15:50 33,4 C 32 % 1013,0 hPa 0,0 l/m 5,8 km/h (2 Bft) NO 42 5 min 0,000 mm 4,0 UV-I 951 W/m 14,4 C 33,4 C 7,9 km/h (2 Bft) 0,00 %
05.07.2015 15:55 33,4 C 31 % 1013,3 hPa 0,0 l/m 0,4 km/h (0 Bft) O-NO 67 5 min 0,000 mm 4,0 UV-I 950 W/m 13,9 C 33,4 C 4,0 km/h (1 Bft) 0,00 %
05.07.2015 16:00 33,3 C 32 % 1013,1 hPa 0,0 l/m 0,4 km/h (0 Bft) O 99 5 min 0,000 mm 4,0 UV-I 947 W/m 14,3 C 33,3 C 4,0 km/h (1 Bft) 0,00 %
05.07.2015 16:05 33,4 C 31 % 1013,0 hPa 0,0 l/m 0,0 km/h (0 Bft) NO 37 5 min 0,000 mm 3,0 UV-I 939 W/m 13,9 C 33,4 C 0,0 km/h (0 Bft) 0,00 %
05.07.2015 16:10 33,3 C 28 % 1013,2 hPa 0,0 l/m 1,4 km/h (1 Bft) N 351 5 min 0,000 mm 3,0 UV-I 936 W/m 12,3 C 33,3 C 4,0 km/h (1 Bft) 0,00 %
05.07.2015 16:15 33,3 C 30 % 1013,1 hPa 0,0 l/m 0,0 km/h (0 Bft) O-NO 61 5 min 0,000 mm 3,0 UV-I 934 W/m 13,3 C 33,3 C 0,0 km/h (0 Bft) 0,00 %
05.07.2015 16:20 33,5 C 27 % 1013,0 hPa 0,0 l/m 4,0 km/h (1 Bft) O 94 5 min 0,000 mm 3,0 UV-I 933 W/m 11,9 C 33,5 C 4,0 km/h (1 Bft) 0,00 %
05.07.2015 16:25 33,7 C 25 % 1012,9 hPa 0,0 l/m 0,0 km/h (0 Bft) NO 36 5 min 0,000 mm 3,0 UV-I 931 W/m 10,9 C 33,7 C 0,0 km/h (0 Bft) 0,00 %
05.07.2015 16:30 33,9 C 21 % 1012,9 hPa 0,0 l/m 0,0 km/h (0 Bft) NO 37 5 min 0,000 mm 3,0 UV-I 923 W/m 8,5 C 33,9 C 0,0 km/h (0 Bft) 0,00 %
05.07.2015 16:35 34,0 C 27 % 1013,0 hPa 0,0 l/m 1,4 km/h (1 Bft) O-NO 64 5 min 0,000 mm 3,0 UV-I 910 W/m 12,3 C 34,0 C 4,0 km/h (1 Bft) 0,00 %
05.07.2015 16:40 34,0 C 25 % 1012,7 hPa 0,0 l/m 0,7 km/h (0 Bft) O-NO 72 5 min 0,000 mm 3,0 UV-I 909 W/m 11,2 C 34,0 C 4,0 km/h (1 Bft) 0,00 %
05.07.2015 16:45 33,9 C 23 % 1012,7 hPa 0,0 l/m 0,0 km/h (0 Bft) O-NO 60 5 min 0,000 mm 3,0 UV-I 909 W/m 9,8 C 33,9 C 0,0 km/h (0 Bft) 0,00 %
05.07.2015 16:50 34,0 C 30 % 1012,6 hPa 0,0 l/m 3,2 km/h (1 Bft) O 94 5 min 0,000 mm 3,0 UV-I 892 W/m 13,9 C 34,0 C 7,9 km/h (2 Bft) 0,00 %
05.07.2015 16:55 33,9 C 31 % 1012,5 hPa 0,0 l/m 1,8 km/h (1 Bft) NO 54 5 min 0,000 mm 3,0 UV-I 882 W/m 14,4 C 33,9 C 4,0 km/h (1 Bft) 0,00 %
05.07.2015 17:00 33,6 C 27 % 1012,4 hPa 0,0 l/m 0,0 km/h (0 Bft) N-NO 29 5 min 0,000 mm 2,0 UV-I 876 W/m 12,0 C 33,6 C 0,0 km/h (0 Bft) 0,00 %
05.07.2015 17:05 33,4 C 31 % 1012,5 hPa 0,0 l/m 0,4 km/h (0 Bft) NO 54 5 min 0,000 mm 2,0 UV-I 867 W/m 13,9 C 33,4 C 4,0 km/h (1 Bft) 0,00 %
05.07.2015 17:10 33,4 C 30 % 1012,4 hPa 0,0 l/m 0,0 km/h (0 Bft) O 84 5 min 0,000 mm 2,0 UV-I 857 W/m 13,4 C 33,4 C 0,0 km/h (0 Bft) 0,00 %
05.07.2015 17:15 33,4 C 28 % 1012,3 hPa 0,0 l/m 0,0 km/h (0 Bft) NO 36 5 min 0,000 mm 2,0 UV-I 849 W/m 12,4 C 33,4 C 0,0 km/h (0 Bft) 0,00 %
05.07.2015 17:20 33,4 C 31 % 1012,5 hPa 0,0 l/m 3,2 km/h (1 Bft) O 100 5 min 0,000 mm 2,0 UV-I 839 W/m 13,9 C 33,4 C 4,0 km/h (1 Bft) 0,00 %
05.07.2015 17:25 33,3 C 29 % 1012,3 hPa 0,0 l/m 0,4 km/h (0 Bft) N-NW 333 5 min 0,000 mm 2,0 UV-I 829 W/m 12,8 C 33,3 C 4,0 km/h (1 Bft) 0,00 %
05.07.2015 17:30 33,2 C 27 % 1012,3 hPa 0,0 l/m 2,2 km/h (1 Bft) NO 50 5 min 0,000 mm 2,0 UV-I 818 W/m 11,6 C 33,2 C 4,0 km/h (1 Bft) 0,00 %
05.07.2015 17:35 33,2 C 25 % 1012,2 hPa 0,0 l/m 0,0 km/h (0 Bft) NO 40 5 min 0,000 mm 2,0 UV-I 808 W/m 10,5 C 33,2 C 0,0 km/h (0 Bft) 0,00 %
05.07.2015 17:40 33,2 C 26 % 1012,2 hPa 0,0 l/m 2,9 km/h (1 Bft) S-SO 148 5 min 0,000 mm 2,0 UV-I 803 W/m 11,1 C 33,2 C 7,9 km/h (2 Bft) 0,00 %
05.07.2015 17:45 33,1 C 28 % 1012,1 hPa 0,0 l/m 0,0 km/h (0 Bft) NO 38 5 min 0,000 mm 1,0 UV-I 786 W/m 12,1 C 33,1 C 0,0 km/h (0 Bft) 0,00 %
05.07.2015 17:50 33,1 C 29 % 1012,0 hPa 0,0 l/m 5,8 km/h (2 Bft) O-SO 102 5 min 0,000 mm 1,0 UV-I 771 W/m 12,6 C 33,1 C 7,9 km/h (2 Bft) 0,00 %
05.07.2015 17:55 33,2 C 28 % 1012,0 hPa 0,0 l/m 4,0 km/h (1 Bft) O-SO 112 5 min 0,000 mm 1,0 UV-I 759 W/m 12,2 C 33,2 C 4,0 km/h (1 Bft) 0,00 %
05.07.2015 18:00 33,2 C 27 % 1012,1 hPa 0,0 l/m 0,0 km/h (0 Bft) O 88 5 min 0,000 mm 1,0 UV-I 749 W/m 11,6 C 33,2 C 0,0 km/h (0 Bft) 0,00 %
05.07.2015 18:05 33,2 C 32 % 1012,1 hPa 0,0 l/m 1,4 km/h (1 Bft) SO 133 5 min 0,000 mm 1,0 UV-I 739 W/m 14,2 C 33,2 C 4,0 km/h (1 Bft) 0,00 %
05.07.2015 18:10 33,2 C 31 % 1012,1 hPa 0,0 l/m 0,0 km/h (0 Bft) NO 50 5 min 0,000 mm 1,0 UV-I 720 W/m 13,8 C 33,2 C 0,0 km/h (0 Bft) 0,00 %
05.07.2015 18:15 33,3 C 32 % 1012,0 hPa 0,0 l/m 0,0 km/h (0 Bft) O-SO 117 5 min 0,000 mm 1,0 UV-I 702 W/m 14,3 C 33,3 C 0,0 km/h (0 Bft) 0,00 %
05.07.2015 18:20 33,3 C 28 % 1012,1 hPa 0,0 l/m 0,4 km/h (0 Bft) O-NO 58 5 min 0,000 mm 1,0 UV-I 688 W/m 12,3 C 33,3 C 4,0 km/h (1 Bft) 0,00 %
05.07.2015 18:25 33,2 C 29 % 1012,1 hPa 0,0 l/m 5,4 km/h (1 Bft) O 100 5 min 0,000 mm 1,0 UV-I 675 W/m 12,7 C 33,2 C 7,9 km/h (2 Bft) 0,00 %
05.07.2015 18:30 33,0 C 31 % 1012,1 hPa 0,0 l/m 0,4 km/h (0 Bft) O-NO 62 5 min 0,000 mm 1,0 UV-I 660 W/m 13,6 C 33,0 C 4,0 km/h (1 Bft) 0,00 %
05.07.2015 18:35 32,9 C 32 % 1011,9 hPa 0,0 l/m 0,0 km/h (0 Bft) O-NO 70 5 min 0,000 mm 1,0 UV-I 642 W/m 14,0 C 32,9 C 0,0 km/h (0 Bft) 0,00 %
05.07.2015 18:40 33,0 C 32 % 1011,9 hPa 0,0 l/m 0,0 km/h (0 Bft) O 81 5 min 0,000 mm 1,0 UV-I 623 W/m 14,1 C 33,0 C 0,0 km/h (0 Bft) 0,00 %
05.07.2015 18:45 33,2 C 31 % 1011,8 hPa 0,0 l/m 0,4 km/h (0 Bft) O-SO 102 5 min 0,000 mm 1,0 UV-I 603 W/m 13,8 C 33,2 C 4,0 km/h (1 Bft) 0,00 %
05.07.2015 18:50 33,2 C 31 % 1011,9 hPa 0,0 l/m 0,0 km/h (0 Bft) O-NO 65 5 min 0,000 mm 1,0 UV-I 582 W/m 13,8 C 33,2 C 0,0 km/h (0 Bft) 0,00 %
05.07.2015 18:55 32,9 C 32 % 1011,9 hPa 0,0 l/m 0,0 km/h (0 Bft) O 100 5 min 0,000 mm 1,0 UV-I 560 W/m 14,0 C 32,9 C 0,0 km/h (0 Bft) 0,00 %
05.07.2015 19:00 32,8 C 32 % 1011,8 hPa 0,0 l/m 0,0 km/h (0 Bft) O-NO 57 5 min 0,000 mm 1,0 UV-I 539 W/m 13,9 C 32,8 C 0,0 km/h (0 Bft) 0,00 %
05.07.2015 19:05 32,7 C 33 % 1011,8 hPa 0,0 l/m 0,0 km/h (0 Bft) O-NO 64 5 min 0,000 mm 1,0 UV-I 511 W/m 14,3 C 32,7 C 0,0 km/h (0 Bft) 0,00 %
05.07.2015 19:10 32,6 C 33 % 1012,0 hPa 0,0 l/m 0,4 km/h (0 Bft) O 88 5 min 0,000 mm 1,0 UV-I 483 W/m 14,2 C 32,6 C 4,0 km/h (1 Bft) 0,00 %
05.07.2015 19:15 32,6 C 34 % 1011,9 hPa 0,0 l/m 0,0 km/h (0 Bft) O 97 5 min 0,000 mm 1,0 UV-I 452 W/m 14,7 C 32,6 C 0,0 km/h (0 Bft) 0,00 %
05.07.2015 19:20 32,5 C 35 % 1011,8 hPa 0,0 l/m 0,7 km/h (0 Bft) O 93 5 min 0,000 mm 1,0 UV-I 425 W/m 15,0 C 32,5 C 4,0 km/h (1 Bft) 0,00 %
05.07.2015 19:25 32,4 C 34 % 1011,8 hPa 0,0 l/m 0,0 km/h (0 Bft) NO 41 5 min 0,000 mm 1,0 UV-I 398 W/m 14,5 C 32,4 C 0,0 km/h (0 Bft) 0,00 %
05.07.2015 19:30 32,2 C 38 % 1011,6 hPa 0,0 l/m 0,4 km/h (0 Bft) O-NO 76 5 min 0,000 mm 1,0 UV-I 370 W/m 16,0 C 32,2 C 4,0 km/h (1 Bft) 0,00 %
05.07.2015 19:35 31,9 C 37 % 1011,7 hPa 0,0 l/m 0,0 km/h (0 Bft) O 89 5 min 0,000 mm 1,0 UV-I 339 W/m 15,4 C 31,9 C 0,0 km/h (0 Bft) 0,00 %
05.07.2015 19:40 31,7 C 38 % 1011,8 hPa 0,0 l/m 0,0 km/h (0 Bft) O-NO 72 5 min 0,000 mm 1,0 UV-I 313 W/m 15,6 C 31,7 C 0,0 km/h (0 Bft) 0,00 %
05.07.2015 19:45 31,4 C 38 % 1011,9 hPa 0,0 l/m 0,7 km/h (0 Bft) NO 52 5 min 0,000 mm 1,0 UV-I 281 W/m 15,3 C 31,4 C 4,0 km/h (1 Bft) 0,00 %
05.07.2015 19:50 31,0 C 39 % 1011,8 hPa 0,0 l/m 0,7 km/h (0 Bft) O 81 5 min 0,000 mm 1,0 UV-I 248 W/m 15,4 C 31,0 C 4,0 km/h (1 Bft) 0,00 %
05.07.2015 19:55 30,8 C 40 % 1011,7 hPa 0,0 l/m 2,9 km/h (1 Bft) O-SO 116 5 min 0,000 mm 0,0 UV-I 218 W/m 15,6 C 30,8 C 4,0 km/h (1 Bft) 0,00 %
05.07.2015 20:00 30,5 C 39 % 1011,7 hPa 0,0 l/m 0,0 km/h (0 Bft) O 95 5 min 0,000 mm 0,0 UV-I 191 W/m 15,0 C 30,5 C 0,0 km/h (0 Bft) 0,00 %
05.07.2015 20:05 30,3 C 40 % 1011,6 hPa 0,0 l/m 0,4 km/h (0 Bft) O 94 5 min 0,000 mm 0,0 UV-I 161 W/m 15,2 C 30,3 C 4,0 km/h (1 Bft) 0,00 %
05.07.2015 20:10 30,2 C 41 % 1011,7 hPa 0,0 l/m 0,0 km/h (0 Bft) N-NO 29 5 min 0,000 mm 0,0 UV-I 134 W/m 15,5 C 30,2 C 0,0 km/h (0 Bft) 0,00 %
05.07.2015 20:15 30,0 C 41 % 1011,7 hPa 0,0 l/m 2,9 km/h (1 Bft) O 90 5 min 0,000 mm 0,0 UV-I 108 W/m 15,3 C 30,0 C 4,0 km/h (1 Bft) 0,00 %
05.07.2015 20:20 29,9 C 41 % 1011,6 hPa 0,0 l/m 2,2 km/h (1 Bft) O-NO 77 5 min 0,000 mm 0,0 UV-I 89 W/m 15,2 C 29,9 C 4,0 km/h (1 Bft) 0,00 %
05.07.2015 20:25 29,7 C 41 % 1011,6 hPa 0,0 l/m 0,0 km/h (0 Bft) O 95 5 min 0,000 mm 0,0 UV-I 65 W/m 15,0 C 29,7 C 0,0 km/h (0 Bft) 0,00 %
05.07.2015 20:30 29,5 C 43 % 1011,6 hPa 0,0 l/m 1,4 km/h (1 Bft) O-NO 59 0 min 0,000 mm 0,0 UV-I 37 W/m 15,6 C 29,5 C 4,0 km/h (1 Bft) 0,00 %
05.07.2015 20:35 29,2 C 44 % 1011,6 hPa 0,0 l/m 1,8 km/h (1 Bft) O 98 0 min 0,000 mm 0,0 UV-I 27 W/m 15,7 C 29,2 C 4,0 km/h (1 Bft) 0,00 %
05.07.2015 20:40 28,8 C 42 % 1011,5 hPa 0,0 l/m 2,2 km/h (1 Bft) O-SO 113 0 min 0,000 mm 0,0 UV-I 20 W/m 14,6 C 28,8 C 4,0 km/h (1 Bft) 0,00 %
05.07.2015 20:45 28,5 C 43 % 1011,5 hPa 0,0 l/m 0,0 km/h (0 Bft) N 354 0 min 0,000 mm 0,0 UV-I 9 W/m 14,7 C 28,5 C 0,0 km/h (0 Bft) 0,00 %
05.07.2015 20:50 28,2 C 44 % 1011,4 hPa 0,0 l/m 0,0 km/h (0 Bft) O-NO 73 0 min 0,000 mm 0,0 UV-I 5 W/m 14,8 C 28,2 C 0,0 km/h (0 Bft) 0,00 %
05.07.2015 20:55 28,0 C 45 % 1011,6 hPa 0,0 l/m 0,0 km/h (0 Bft) O 90 0 min 0,000 mm 0,0 UV-I 0 W/m 14,9 C 28,0 C 0,0 km/h (0 Bft) 0,00 %
05.07.2015 21:00 27,8 C 45 % 1011,7 hPa 0,0 l/m 0,0 km/h (0 Bft) O-NO 75 0 min 0,000 mm 0,0 UV-I 0 W/m 14,8 C 27,8 C 0,0 km/h (0 Bft) 0,00 %
05.07.2015 21:05 27,5 C 45 % 1011,6 hPa 0,0 l/m 0,0 km/h (0 Bft) O 96 0 min 0,000 mm 0,0 UV-I 0 W/m 14,5 C 27,5 C 0,0 km/h (0 Bft) 0,00 %
05.07.2015 21:10 27,2 C 46 % 1011,8 hPa 0,0 l/m 0,0 km/h (0 Bft) O-NO 72 0 min 0,000 mm 0,0 UV-I 0 W/m 14,6 C 27,2 C 0,0 km/h (0 Bft) 0,00 %
05.07.2015 21:15 27,0 C 46 % 1011,8 hPa 0,0 l/m 1,4 km/h (1 Bft) O-SO 116 0 min 0,000 mm 0,0 UV-I 0 W/m 14,4 C 27,0 C 4,0 km/h (1 Bft) 0,00 %
05.07.2015 21:20 26,8 C 47 % 1011,8 hPa 0,0 l/m 1,8 km/h (1 Bft) O-SO 123 0 min 0,000 mm 0,0 UV-I 0 W/m 14,5 C 26,8 C 4,0 km/h (1 Bft) 0,00 %
05.07.2015 21:25 26,6 C 49 % 1012,0 hPa 0,0 l/m 1,4 km/h (1 Bft) O-SO 105 0 min 0,000 mm 0,0 UV-I 0 W/m 15,0 C 26,6 C 4,0 km/h (1 Bft) 0,00 %
05.07.2015 21:30 26,3 C 48 % 1012,0 hPa 0,0 l/m 0,0 km/h (0 Bft) O 95 0 min 0,000 mm 0,0 UV-I 0 W/m 14,4 C 26,3 C 0,0 km/h (0 Bft) 0,00 %
05.07.2015 21:35 26,0 C 50 % 1011,9 hPa 0,0 l/m 0,0 km/h (0 Bft) O-NO 78 0 min 0,000 mm 0,0 UV-I 0 W/m 14,8 C 26,0 C 0,0 km/h (0 Bft) 0,00 %
05.07.2015 21:40 25,8 C 47 % 1012,2 hPa 0,0 l/m 3,2 km/h (1 Bft) O-SO 103 0 min 0,000 mm 0,0 UV-I 0 W/m 13,6 C 25,8 C 4,0 km/h (1 Bft) 0,00 %
05.07.2015 21:45 25,8 C 44 % 1012,1 hPa 0,0 l/m 2,9 km/h (1 Bft) O 89 0 min 0,000 mm 0,0 UV-I 0 W/m 12,6 C 25,8 C 4,0 km/h (1 Bft) 0,00 %
05.07.2015 21:50 26,0 C 43 % 1011,9 hPa 0,0 l/m 2,2 km/h (1 Bft) O-NO 77 0 min 0,000 mm 0,0 UV-I 0 W/m 12,4 C 26,0 C 4,0 km/h (1 Bft) 0,00 %
05.07.2015 21:55 26,0 C 44 % 1011,9 hPa 0,0 l/m 1,8 km/h (1 Bft) O 96 0 min 0,000 mm 0,0 UV-I 0 W/m 12,8 C 26,0 C 4,0 km/h (1 Bft) 0,00 %
05.07.2015 22:00 26,0 C 44 % 1011,9 hPa 0,0 l/m 3,2 km/h (1 Bft) O 101 0 min 0,000 mm 0,0 UV-I 0 W/m 12,8 C 26,0 C 7,9 km/h (2 Bft) 0,00 %
05.07.2015 22:05 25,9 C 43 % 1012,2 hPa 0,0 l/m 2,2 km/h (1 Bft) O 83 0 min 0,000 mm 0,0 UV-I 0 W/m 12,3 C 25,9 C 4,0 km/h (1 Bft) 0,00 %
05.07.2015 22:10 25,9 C 46 % 1012,1 hPa 0,0 l/m 4,0 km/h (1 Bft) O-SO 116 0 min 0,000 mm 0,0 UV-I 0 W/m 13,4 C 25,9 C 7,9 km/h (2 Bft) 0,00 %
05.07.2015 22:15 25,8 C 47 % 1012,0 hPa 0,0 l/m 0,0 km/h (0 Bft) O-NO 70 0 min 0,000 mm 0,0 UV-I 0 W/m 13,6 C 25,8 C 0,0 km/h (0 Bft) 0,00 %
05.07.2015 22:20 25,5 C 48 % 1011,9 hPa 0,0 l/m 0,0 km/h (0 Bft) NO 56 0 min 0,000 mm 0,0 UV-I 0 W/m 13,7 C 25,5 C 0,0 km/h (0 Bft) 0,00 %
05.07.2015 22:25 25,2 C 50 % 1012,3 hPa 0,0 l/m 3,2 km/h (1 Bft) O-SO 118 0 min 0,000 mm 0,0 UV-I 0 W/m 14,0 C 25,2 C 4,0 km/h (1 Bft) 0,00 %
05.07.2015 22:30 24,9 C 50 % 1012,2 hPa 0,0 l/m 0,0 km/h (0 Bft) O-NO 73 0 min 0,000 mm 0,0 UV-I 0 W/m 13,7 C 24,9 C 0,0 km/h (0 Bft) 0,00 %
05.07.2015 22:35 24,7 C 51 % 1012,1 hPa 0,0 l/m 0,0 km/h (0 Bft) N 352 0 min 0,000 mm 0,0 UV-I 0 W/m 13,9 C 24,7 C 0,0 km/h (0 Bft) 0,00 %
05.07.2015 22:40 24,6 C 51 % 1012,0 hPa 0,0 l/m 1,4 km/h (1 Bft) O-SO 103 0 min 0,000 mm 0,0 UV-I 0 W/m 13,8 C 24,6 C 4,0 km/h (1 Bft) 0,00 %
05.07.2015 22:45 24,6 C 51 % 1011,9 hPa 0,0 l/m 2,2 km/h (1 Bft) N-NW 335 0 min 0,000 mm 0,0 UV-I 0 W/m 13,8 C 24,6 C 4,0 km/h (1 Bft) 0,00 %
05.07.2015 22:50 24,6 C 51 % 1011,9 hPa 0,0 l/m 1,4 km/h (1 Bft) O-SO 122 0 min 0,000 mm 0,0 UV-I 0 W/m 13,8 C 24,6 C 4,0 km/h (1 Bft) 0,00 %
05.07.2015 22:55 24,6 C 51 % 1011,9 hPa 0,0 l/m 0,7 km/h (0 Bft) O 83 0 min 0,000 mm 0,0 UV-I 0 W/m 13,8 C 24,6 C 4,0 km/h (1 Bft) 0,00 %
05.07.2015 23:00 24,5 C 52 % 1011,8 hPa 0,0 l/m 1,8 km/h (1 Bft) O-SO 117 0 min 0,000 mm 0,0 UV-I 0 W/m 14,0 C 24,5 C 4,0 km/h (1 Bft) 0,00 %
05.07.2015 23:05 24,4 C 52 % 1012,0 hPa 0,0 l/m 0,4 km/h (0 Bft) O-SO 119 0 min 0,000 mm 0,0 UV-I 0 W/m 13,9 C 24,4 C 4,0 km/h (1 Bft) 0,00 %
05.07.2015 23:10 24,3 C 52 % 1011,9 hPa 0,0 l/m 0,0 km/h (0 Bft) O-NO 58 0 min 0,000 mm 0,0 UV-I 0 W/m 13,8 C 24,3 C 0,0 km/h (0 Bft) 0,00 %
05.07.2015 23:15 24,3 C 55 % 1011,8 hPa 0,0 l/m 0,0 km/h (0 Bft) NO 54 0 min 0,000 mm 0,0 UV-I 0 W/m 14,7 C 24,3 C 0,0 km/h (0 Bft) 0,00 %
05.07.2015 23:20 23,9 C 59 % 1011,7 hPa 0,0 l/m 0,0 km/h (0 Bft) NO 45 0 min 0,000 mm 0,0 UV-I 0 W/m 15,4 C 23,9 C 0,0 km/h (0 Bft) 0,00 %
05.07.2015 23:25 23,5 C 62 % 1011,8 hPa 0,0 l/m 0,0 km/h (0 Bft) NO 35 0 min 0,000 mm 0,0 UV-I 0 W/m 15,8 C 23,5 C 0,0 km/h (0 Bft) 0,00 %
05.07.2015 23:30 22,8 C 65 % 1012,0 hPa 0,0 l/m 0,0 km/h (0 Bft) NO 40 0 min 0,000 mm 0,0 UV-I 0 W/m 15,9 C 22,8 C 0,0 km/h (0 Bft) 0,00 %
05.07.2015 23:35 22,1 C 65 % 1012,0 hPa 0,0 l/m 0,0 km/h (0 Bft) N-NO 32 0 min 0,000 mm 0,0 UV-I 0 W/m 15,2 C 22,1 C 0,0 km/h (0 Bft) 0,00 %
05.07.2015 23:40 21,7 C 66 % 1012,1 hPa 0,0 l/m 0,0 km/h (0 Bft) NO 43 0 min 0,000 mm 0,0 UV-I 0 W/m 15,1 C 21,7 C 0,0 km/h (0 Bft) 0,00 %
05.07.2015 23:45 21,3 C 68 % 1012,2 hPa 0,0 l/m 0,0 km/h (0 Bft) NO 43 0 min 0,000 mm 0,0 UV-I 0 W/m 15,1 C 21,3 C 0,0 km/h (0 Bft) 0,00 %
05.07.2015 23:50 21,0 C 69 % 1012,4 hPa 0,0 l/m 0,0 km/h (0 Bft) NO 42 0 min 0,000 mm 0,0 UV-I 0 W/m 15,1 C 21,0 C 0,0 km/h (0 Bft) 0,00 %
05.07.2015 23:55 20,6 C 70 % 1012,3 hPa 0,0 l/m 0,0 km/h (0 Bft) NO 46 0 min 0,000 mm 0,0 UV-I 0 W/m 14,9 C 20,6 C 0,0 km/h (0 Bft) 0,00 %
_ Min-Zeit 04:55 16:30 20:50 - 00:00 - - - - - - 16:30 04:55 00:00 00:00
Minimum _ 16,0 C 21 % 1011,4 hPa - 0,0 km/h (0 Bft) - - - - - - 8,5 C 16,0 C 0,0 km/h (0 Bft) 0,00 %
_ Max-Zeit 16:35 04:25 04:30 00:00 15:20 - - 05:55 00:00 12:40 14:25 12:25 16:35 15:20 00:00
Maximum _ 34,0 C 87 % 1019,6 hPa 0,0 l/m 8,3 km/h
O (2 Bft)
- - 5 min 0,000 mm 6,0 UV-I 986 W/m 17,3 C 34,0 C 11,9 km/h
O (2 Bft)
0,00 %
Durchschnitt _ 26,2 C 53 % 1015,5 hPa #0,0 l/m 0,5 km/h (0 Bft) O - #14:35 h #0,000 mm 2,9 UV-I 616 W/m 14,7 C 26,2 C 1,3 km/h (1 Bft) 0,00 %